Regional Weather Roundup
Issued by NWS

Home | Current Version | Previous Version | Graphics & Text | Print | Product List | Glossary Off
Versions: 1 2 3 4 5 6 7 8 9 10 11 12 13 14 15 16 17 18 19 20 21 22 23 24 25 26 27 28 29 30 31 32 33 34 35 36 37 38 39 40 41 42 43 44 45 46 47 48 49 50

000
ASUS45 KBOU 042307
RWRCO

WEATHER ROUNDUP FOR COLORADO
NATIONAL WEATHER SERVICE DENVER/BOULDER CO
500 PM MDT TUE AUG 04 2015

NOTE: "FAIR" INDICATES FEW OR NO CLOUDS BELOW 12000 FEET WITH NO
SIGNIFICANT WEATHER AND/OR OBSTRUCTIONS TO VISIBILITY.

COZ001>005-013-030-031-050000-
...NORTHWEST COLORADO...

CITY           SKY/WX    TMP DP  RH WIND       PRES   REMARKS
CRAIG          NOT AVBL
HAYDEN         MOSUNNY   81  36  19 W17G25    30.21S
MEEKER         SUNNY     85  33  15 W14G22    30.19F
MOUNT WERNER   NOT AVBL
STEAMBOAT SPGS   N/A    N/A N/A N/A MISG        N/A
WALDEN         MOSUNNY   70  32  24 W22G30    30.31S
$$

COZ006>008-011-050000-
...WEST CENTRAL VALLEYS...

CITY           SKY/WX    TMP DP  RH WIND       PRES   REMARKS
GRAND JUNCTION MOSUNNY   91  40  16 VRB6      30.07F
MONTROSE       MOSUNNY   88  43  20 VRB5      30.17F
EAGLE          MOSUNNY   82  36  18 SW12G21   30.22F
RIFLE          MOSUNNY   87  40  19 W9        30.12F
DELTA          MOSUNNY   94  35  12 W10       30.11F
NUCLA          MOSUNNY   86  36  16 W3        30.21F
$$

COZ017>023-064>068-050000-
...SOUTHWEST COLORADO...

CITY           SKY/WX    TMP DP  RH WIND       PRES   REMARKS
DURANGO        MOSUNNY   85  33  15 NW21      30.22F
CORTEZ         SUNNY     88  39  17 SW12G21   30.19F
PAGOSA SPRINGS MOSUNNY   82  27  13 W13G18    30.29F
TELLURIDE      PTSUNNY   70  37  30 W6        30.47S
WOLF CREEK PAS NOT AVBL
$$

COZ009-010-012-014-032>034-037-058>063-050000-
...CENTRAL COLORADO...

CITY           SKY/WX    TMP DP  RH WIND       PRES   REMARKS
ASPEN          MOSUNNY   74  41  30 N13G18    30.31S
BUENA VISTA    MOSUNNY   78  28  15 SW17G23   30.29F
COPPER MTN     PTSUNNY   59  30  33 W23G44    30.64R
BERTHOUD PASS  FAIR      52  41  66 NW35G49   30.62R
COTTONWOOD PAS MOSUNNY   68  30  24 NW8G18    30.46S
GUNNISON       MOSUNNY   79  34  19 W13G28    30.33S
KREMMLING      SUNNY     79  25  13 NW10G21   30.29R
LEADVILLE      CLOUDY    64  30  27 NW20G25   30.46R
MONARCH PASS   MOSUNNY   59  32  36 W24G43    30.73R
SALIDA         NOT AVBL
SUNLIGHT       CLOUDY    63  41  45 CALM      30.58S
WILKERSON PASS NOT AVBL
$$

COZ069>075-050000-
...SAN LUIS VALLEY/SANGRE DE CRISTO MOUNTAINS...

CITY           SKY/WX    TMP DP  RH WIND       PRES   REMARKS
ALAMOSA        MOSUNNY   77  39  25 S7        30.26F
LA VETA PASS   MOSUNNY   66  34  30 MISG      30.48S
SAGUACHE       MOSUNNY   79  36  21 N17G26    30.31S
$$

COZ035-036-038>040-050000-
...NORTHERN COLORADO FRONT RANGE...

CITY           SKY/WX    TMP DP  RH WIND       PRES   REMARKS
DENVER INTL AP MOSUNNY   87  40  19 NW8       30.06R
DMNS CITY PARK   N/A     89  33  13 N6G17     30.05R
AURORA         MOSUNNY   89  35  14 N23G30    30.07R
FRONT RANGE AP MOSUNNY   86  39  19 NE12      30.08R
ERIE MUNI ARPT SUNNY     91  32  12 N13G29    30.04R
BOULDER MUN AP SUNNY     90  32  12 NW21G28   30.05R
CENTENNIAL     MOSUNNY   88  33  14 NW18G30   30.08S
BROOMFIELD     PTSUNNY   90  34  13 NW18G29   30.08S
FORT COLLINS   SUNNY    N/A N/A N/A NW13G24   30.01R
LONGMONT       SUNNY     93  35  13 NW14      30.04R
$$

COZ041-046-047-076>085-087-088-050000-
...PIKES PEAK/PALMER DIVIDE AND SOUTHERN FOOTHILLS...

CITY           SKY/WX    TMP DP  RH WIND       PRES   REMARKS
COLO. SPRINGS  MOSUNNY   89  29  11 NW13      30.11R
A. F. ACADEMY  MOSUNNY   83  36  18 N13       30.13S
ELLICOTT       MOSUNNY  N/A N/A N/A VRB6      30.10S
FALCON         MOSUNNY   76  48  36 NE5       30.19R
FORT CARSON    MOSUNNY   90  34  13 NW14      30.07R
LIMON          SUNNY     80  56  43 NE28      30.07R
MONUMENT HILL  MOSUNNY   81  37  21 N8        30.20S
TRINIDAD       SUNNY     92  39  15 NW12G23   30.07S
$$

COZ042>045-048>051-090-091-050000-
...NORTHEAST COLORADO...

CITY           SKY/WX    TMP DP  RH WIND       PRES   REMARKS
GREELEY ARPT   MOSUNNY   86  48  26 E7        30.02S
AKRON          PTSUNNY   79  51  37 NE8       30.04F
BURLINGTON     MOSUNNY   83  56  39 NE15      30.01R
WRAY           CLOUDY    77  59  53 E7        30.00F
STERLING       PTSUNNY   79  55  44 E6        29.99F
HOLYOKE        CLOUDY    75  61  60 E6        30.01S
FORT MORGAN    PTSUNNY   79  51  38 E13       30.03S
$$

COZ086-089-092>099-050000-
...SOUTHEAST COLORADO...

CITY           SKY/WX    TMP DP  RH WIND       PRES   REMARKS
PUEBLO         MOSUNNY   95  39  14 W18G24    29.96S
LA JUNTA       SUNNY     94  49  21 E5        29.95S
LAMAR          SUNNY     96  51  21 NE8       29.90F
SPRINGFIELD      N/A     95  40  14 N9        29.96S
$$



USA.gov is the U.S. government's official web portal to all federal, state and local government web resources and services.